Location: Cantaing
(50.1487°N, 3.1675°E)
Time: 19:32:56
(UTC+00:00)

Cosmos 909 Rocket - Pass Details

Date: 14 January 2026
Orbit: 992 x 2087 km, 65.9° (Epoch: 13 February)

Event Time Altitude Azimuth Distance (km) Brightness Sun altitude
Exits shadow 04:58:14 47° 236° (SW) 1,375 4.4 -25.4°
Drops below altitude 10° 05:04:50 10° 170° (S) 3,127 6.8 -24.3°
Sets 05:07:54 0° 165° (SSE) 4,229 7.6 -23.8°
